Bellingham, WA

10:35 PM PDT on July 24, 2017 (GMT -0700)
Bellingham International

Weather History for KBLI - October, 2012

Change the Weather History Date:

Monday, October 15, 2012

  Actual Average Record
Temperature  
Mean Temperature 53 °F 50 °F  
Max Temperature 62 °F 58 °F 71 °F (1963)
Min Temperature 44 °F 42 °F 28 °F (1966)
Degree Days  
Heating Degree Days 12 15  
Month to date heating degree days 201  
Cooling Degree Days 0 0  
Month to date cooling degree days 0  
Year to date cooling degree days 42  
Growing Degree Days 3 (Base 50)    
Moisture  
Dew Point 51 °F    
Average Humidity 92    
Maximum Humidity 100    
Minimum Humidity 69    
Precipitation  
Precipitation 0.25 in 0.12 in 1.08 in (1988)
Month to date precipitation 1.41  
Year to date precipitation 23.54  
Sea Level Pressure  
Sea Level Pressure 29.78 in    
Wind  
Wind Speed 6 mph (SSE)    
Max Wind Speed 24 mph    
Max Gust Speed 36 mph    
Visibility 6 miles    
Events Fog , Rain    
T = Trace of Precipitation, MM = Missing Value Source: NWS Daily Summary

Daily Weather History Graph

Daily Weather History Graph

Search for Another Location

Airport or City:

Trip Planner

Search our weather history database for the weather conditions in past years. The results will help you decide how hot, cold, wet, or windy it might be!

Date:

Astronomy

Oct. 15, 2012 Rise Set
Actual Time 7:31 AM PDT 6:19 PM PDT
Civil Twilight 6:59 AM PDT 6:51 PM PDT
Nautical Twilight 6:22 AM PDT 7:27 PM PDT
Astronomical Twilight 5:46 AM PDT 8:04 PM PDT
Moon 7:54 AM PDT (10/15) 6:15 PM PDT (10/15)
Length of Visible Light 11h 51m
Length of Day
10h 47m
New Moon, 0% of the Moon is Illuminated
Oct 15
New Moon
Oct 21
First Quarter
Oct 29
Full
Nov 6
Last Quarter
Nov 13
New

Hourly Weather History & Observations

Time (PDT) Temp. Dew Point Humidity Pressure Visibility Wind Dir Wind Speed Gust Speed Precip Events Conditions
12:34 AM 55.4 °F 53.6 °F 94% 29.85 in 5.0 mi South 5.8 mph - 0.01 in Rain Light Rain
12:53 AM 55.0 °F 54.0 °F 96% 29.87 in 7.0 mi SSE 6.9 mph - 0.01 in   Overcast
1:53 AM 55.0 °F 54.0 °F 96% 29.88 in 10.0 mi South 5.8 mph - 0.01 in   Overcast
2:02 AM 55.4 °F 53.6 °F 94% 29.87 in 10.0 mi South 6.9 mph - N/A   Mostly Cloudy
2:53 AM 53.1 °F 52.0 °F 96% 29.89 in 10.0 mi South 6.9 mph - 0.01 in   Scattered Clouds
3:22 AM 53.6 °F 51.8 °F 94% 29.87 in 10.0 mi South 4.6 mph - N/A   Mostly Cloudy
3:40 AM 53.6 °F 51.8 °F 94% 29.87 in 8.0 mi South 5.8 mph - 0.01 in   Scattered Clouds
3:53 AM 52.0 °F 51.1 °F 97% 29.90 in 8.0 mi South 4.6 mph - 0.01 in   Partly Cloudy
4:36 AM 50.0 °F 48.2 °F 94% 29.89 in 1.8 mi Calm Calm - 0.01 in   Clear
4:53 AM 48.9 °F 48.9 °F 100% 29.91 in 2.0 mi South 4.6 mph - 0.01 in   Clear
5:01 AM 50.0 °F 48.2 °F 94% 29.89 in 5.0 mi SSE 3.5 mph - N/A   Clear
5:06 AM 48.2 °F 48.2 °F 100% 29.89 in 1.5 mi SE 3.5 mph - N/A   Clear
5:10 AM 48.2 °F 48.2 °F 100% 29.89 in 1.0 mi SE 3.5 mph - N/A   Mist
5:20 AM 48.2 °F 48.2 °F 100% 29.89 in 2.0 mi Calm Calm - N/A   Clear
5:31 AM 48.2 °F 46.4 °F 93% 29.90 in 1.0 mi Calm Calm - 0.01 in   Mist
5:34 AM 46.4 °F 46.4 °F 100% 29.90 in 0.5 mi Calm Calm - 0.01 in Fog Fog
5:51 AM 48.2 °F 46.4 °F 93% 29.90 in 0.2 mi Calm Calm - 0.01 in Fog Fog
5:53 AM 48.0 °F 46.0 °F 93% 29.93 in 0.2 mi Calm Calm - 0.01 in Fog Fog
6:11 AM 46.4 °F 44.6 °F 93% 29.91 in 0.2 mi Calm Calm - 0.01 in Fog Fog
6:21 AM 44.6 °F 44.6 °F 100% 29.91 in 0.2 mi Calm Calm - 0.01 in Fog Fog
6:46 AM 48.2 °F 46.4 °F 93% 29.90 in 1.0 mi Calm Calm - 0.02 in   Overcast
6:53 AM 48.0 °F 48.0 °F 100% 29.93 in 1.2 mi SSE 3.5 mph - 0.02 in   Overcast
7:01 AM 50.0 °F 48.2 °F 94% 29.91 in 3.0 mi South 4.6 mph - N/A   Mostly Cloudy
7:51 AM 51.8 °F 50.0 °F 94% 29.90 in 5.0 mi South 6.9 mph - 0.01 in   Partly Cloudy
7:53 AM 51.1 °F 50.0 °F 96% 29.92 in 7.0 mi South 6.9 mph - 0.01 in   Partly Cloudy
8:39 AM 51.8 °F 51.8 °F 100% 29.91 in 4.0 mi South 8.1 mph - 0.01 in   Mostly Cloudy
8:53 AM 52.0 °F 51.1 °F 97% 29.93 in 1.5 mi South 10.4 mph - 0.02 in   Mostly Cloudy
9:18 AM 51.8 °F 51.8 °F 100% 29.92 in 0.5 mi South 12.7 mph 20.7 mph N/A Fog Fog
9:53 AM 52.0 °F 51.1 °F 97% 29.94 in 1.0 mi South 12.7 mph 19.6 mph 0.01 in   Overcast
10:06 AM 53.6 °F 51.8 °F 94% 29.91 in 4.0 mi South 12.7 mph - N/A   Overcast
10:22 AM 53.6 °F 51.8 °F 94% 29.89 in 6.0 mi South 12.7 mph 18.4 mph N/A   Overcast
10:53 AM 57.9 °F 51.1 °F 78% 29.90 in 10.0 mi ESE 9.2 mph - 0.01 in   Partly Cloudy
11:53 AM 57.9 °F 50.0 °F 75% 29.86 in 10.0 mi Variable 5.8 mph - N/A   Partly Cloudy
12:53 PM 57.0 °F 51.1 °F 81% 29.86 in 10.0 mi South 8.1 mph 17.3 mph 0.01 in   Scattered Clouds
1:53 PM 60.1 °F 50.0 °F 69% 29.77 in 10.0 mi SSE 6.9 mph - 0.01 in   Scattered Clouds
2:53 PM 60.1 °F 50.0 °F 69% 29.73 in 10.0 mi ESE 9.2 mph - 0.01 in Rain Light Rain
3:53 PM 55.9 °F 54.0 °F 93% 29.67 in 7.0 mi NNE 5.8 mph - 0.00 in Rain Light Rain
4:31 PM 55.4 °F 53.6 °F 94% 29.61 in 3.0 mi NE 6.9 mph - 0.01 in Rain Light Rain
4:43 PM 55.4 °F 53.6 °F 94% 29.61 in 1.8 mi NNE 5.8 mph - 0.01 in Rain Rain
4:53 PM 55.0 °F 53.1 °F 93% 29.62 in 1.5 mi North 4.6 mph - 0.01 in Rain Rain
5:19 PM 55.4 °F 53.6 °F 94% 29.56 in 2.5 mi ESE 11.5 mph - N/A Rain Rain
5:27 PM 57.2 °F 55.4 °F 94% 29.54 in 5.0 mi ESE 10.4 mph - N/A Rain Light Rain
5:53 PM 57.9 °F 54.0 °F 87% 29.52 in 10.0 mi SE 10.4 mph - N/A Rain Light Rain
6:53 PM 61.0 °F 55.0 °F 81% 29.48 in 10.0 mi SSE 18.4 mph 29.9 mph 0.01 in   Overcast
7:53 PM 62.1 °F 57.0 °F 84% 29.48 in 10.0 mi SSE 23.0 mph 31.1 mph 0.01 in Rain Light Rain
8:19 PM 60.8 °F 55.4 °F 82% 29.47 in 10.0 mi South 18.4 mph 35.7 mph 0.00 in Rain Light Rain
8:53 PM 61.0 °F 57.0 °F 87% 29.49 in 10.0 mi SSE 24.2 mph 32.2 mph 0.01 in Rain Light Rain
9:53 PM 57.9 °F 55.9 °F 93% 29.50 in 10.0 mi SSE 13.8 mph 27.6 mph 0.01 in   Overcast
10:10 PM 57.2 °F 55.4 °F 94% 29.48 in 10.0 mi SSE 13.8 mph 20.7 mph 0.01 in   Overcast
10:22 PM 57.2 °F 55.4 °F 94% 29.48 in 10.0 mi SSE 15.0 mph 23.0 mph 0.01 in   Mostly Cloudy
10:53 PM 57.9 °F 54.0 °F 87% 29.52 in 10.0 mi SSE 10.4 mph 18.4 mph 0.02 in   Mostly Cloudy
11:53 PM 57.9 °F 50.0 °F 75% 29.54 in 10.0 mi Calm Calm - 0.02 in   Clear